www.pogodaiklimat.ru

Погода и климат >> Архив погоды >> Россия >> Камчатский край >> Большерецк


ПОГОДА в Большерецке

  • Прогноз погоды в Большерецке
  • Монитор погоды в Большерецке
  • Климат города

АРХИВ ПОГОДЫ в Большерецке

Время (UTC), дата Ветер
(напр.,м/с)
 
Видим.   Явления Облачность Т
(С)
Тd
(С)
f
(%)
Тe
(С)
Тes
(С)
Комфортность P
(гПа)
Po
(гПа)
Тmin
(С)
Tmax
(С)
R
(мм)
R24
(мм)
S
(см)
21 16.06 З 1 200 м туман ?/? +5.8 +5.7 99 +4 +4 1017.3 1013.6 +3.9
00 17.06 З 3 50 км {туман} 10/3 300 м
[St Cs]
+11.2 +6.9 75 +9 +17 1017.3 1013.6
03 17.06 З 4 50 км 9/3 300 м
[St Ci fib]
+11.0 +6.5 74 +9 +15 1016.3 1012.7
06 17.06 СЗ 4 50 км 9/9 300 м
[St]
+8.7 +6.7 87 +6 +6 1016.4 1012.7
09 17.06 СЗ 3 20 км 10/10 300 м
[St]
+6.9 +6.3 96 +4 +4 1016.8 1013.1 +12.9
12 17.06 З 2 200 м туман ?/? +6.1 +6.0 99 +3 +3 1017.2 1013.5
15 17.06 СЗ 1 200 м туман ?/? +6.0 +5.9 99 +5 +5 1017.1 1013.4
18 17.06 штиль 0 200 м туман ?/? +6.2 +6.1 99 +5 +5 1017.1 1013.4
21 17.06 С 1 2000 м дымка {туман} 10/10 300 м
[St]
+7.3 +7.1 99 +6 +6 1017.6 1013.9 +5.9
00 18.06 З 3 2000 м дымка {туман} 10/10 300 м
[St]
+8.7 +7.7 93 +6 +6 1017.1 1013.4
03 18.06 З 2 10 км 10/10 300 м
[St]
+9.7 +7.6 87 +8 +8 1017.0 1013.3
06 18.06 З 3 200 м туман ?/? +8.9 +6.9 87 +6 +6 1017.5 1013.8
09 18.06 З 1 200 м туман ?/? +7.5 +6.9 96 +6 +6 1018.3 1014.6 +10.2
12 18.06 штиль 0 20 км в посл. час туман 10/10 600 м
[Sc]
+7.0 +6.7 98 +6 +6 1017.8 1014.1
15 18.06 ЮЗ 1 20 км 10/10 600 м
[Sc]
+7.3 +6.5 95 +6 +6 1017.9 1014.2
18 18.06 Ю 2 20 км {метель} 10/10 600 м
[Cb calv]
+7.5 +7.1 97 +5 +5 1017.7 1014.0
21 18.06 Ю 3 20 км слабый ливневой дождь 10/10 600 м
[Cb cap]
+7.7 +7.1 96 +5 +5 1017.6 1013.9 +7.0 0.9
00 19.06 Ю 3 10 км слабый ливневой дождь 10/10 300 м
[Cb cap]
+7.5 +7.2 98 +4 +4 1017.1 1013.4
03 19.06 Ю 4 10 км слабый ливневой дождь 10/10 300 м
[Cb cap]
+7.2 +6.7 97 +3 +3 1016.4 1012.7
06 19.06 Ю 5 500 м слабый ливневой дождь {туман} туман ?/? +6.4 +6.1 98 +2 +2 1015.4 1011.7
09 19.06 Ю 4 500 м слабый ливневой дождь {туман} ?/? +6.0 +5.7 98 +2 +2 1015.1 1011.4 +7.8 10
12 19.06 Ю 3 20 км в посл. час ливневой дождь {туман} 10/10 600 м
[Cb cap]
+6.1 +5.8 98 +3 +3 1014.8 1011.1
15 19.06 Ю 3 20 км слабый ливневой дождь 10/10 600 м
[Cb cap]
+6.0 +5.8 99 +3 +3 1013.8 1010.1
18 19.06 Ю 4 10 км слабый ливневой дождь 10/10 300 м
[Cb cap]
+5.9 +5.6 98 +2 +2 1012.8 1009.1
21 19.06 Ю 3 10 км слабый ливневой дождь 10/10 300 м
[Cb cap]
+6.2 +5.9 98 +3 +3 1012.5 1008.8 +5.8 4
00 20.06 Ю 4 10 км слабый ливневой дождь 10/10 300 м
[Cb cap]
+6.7 +6.2 97 +3 +3 1012.0 1008.3
03 20.06 Ю 4 500 м слабая морось {ливн. осадки} туман ?/? +6.6 +6.0 96 +3 +3 1011.2 1007.6
06 20.06 Ю 3 500 м слабая морось {ливн. осадки} туман ?/? +6.3 +5.7 96 +3 +3 1010.3 1006.6
09 20.06 Ю 3 10 км слабый ливневой дождь {морось} 10/10 300 м
[Cb cap]
+6.1 +5.6 97 +3 +3 1009.7 1006.0 +7.1 4
12 20.06 Ю 2 10 км слабый ливневой дождь {морось} 10/10 300 м
[Cb cap]
+5.8 +5.5 98 +3 +3 1009.3 1005.6
15 20.06 В 1 10 км слабый ливневой дождь 10/10 300 м
[Cb cap]
+5.6 +5.5 99 +4 +4 1008.4 1004.7
18 20.06 В 1 200 м слабая морось {ливн. осадки} туман ?/? +5.4 +5.3 99 +4 +4 1007.7 1004.0
21 20.06 СЗ 2 20 км в посл. час туман {морось} 10/10 300 м
[St]
+6.9 +6.7 99 +4 +4 1008.1 1004.4 +5.3 4
00 21.06 СЗ 4 20 км слабая морось {туман} 10/10 300 м
[St]
+8.0 +6.8 92 +5 +5 1008.1 1004.4
03 21.06 СЗ 5 50 км {морось} 10/10 300 м
[St]
+9.9 +7.9 87 +7 +7 1007.3 1003.7
06 21.06 СЗ 6-10
{11}
20 км {морось} 10/10 300 м
[St]
+9.2 +7.6 90 +5 +5 1007.9 1004.3
09 21.06 СЗ 5-10
{10}
20 км 10/10 300 м
[St]
+8.1 +6.7 91 +4 +4 1008.8 1005.2 +10.3 0.0
12 21.06 С 4
{10}
20 км 10/10 300 м
[St]
+7.5 +6.7 95 +4 +4 1009.9 1006.2
15 21.06 СЗ 3 2000 м 10/10 300 м
[St]
+7.1 +6.5 96 +4 +4 1010.0 1006.3
18 21.06 С 1 20 км 10/10 300 м
[St]
+7.0 +6.7 98 +6 +6 1010.5 1006.8
21 21.06 С 1 2000 м дымка 10/10 300 м
[St]
+8.1 +7.5 96 +7 +7 1011.1 1007.5 +7.0
00 22.06 З 2 20 км 10/10 600 м
[Sc]
+9.5 +7.7 89 +8 +8 1012.1 1008.4
03 22.06 ЮЗ 3 20 км 9/8 600 м
[Sc Ac trans]
+12.6 +8.3 75 +11 +13 1011.0 1007.4
06 22.06 З 4 20 км 9/8 600 м
[Sc Ac trans]
+9.9 +7.5 85 +7 +8 1011.0 1007.4
09 22.06 З 1 20 км 9/9 600 м
[Sc]
+7.9 +6.5 91 +7 +7 1012.2 1008.5 +13.3
12 22.06 В 1 20 км 10/10 600 м
[Sc]
+7.5 +6.8 95 +6 +6 1012.3 1008.6
15 22.06 СВ 2 20 км 6/6 600 м
[Sc]
+5.9 +5.6 98 +3 +3 1011.0 1007.3
18 22.06 В 1 200 м туман ?/? +4.3 +4.3 100 +3 +3 1010.8 1007.1
21 22.06 Ю 2 50 км в посл. час туман 8/0
[Ac trans]
+9.8 +7.5 86 +8 +11 1010.8 1007.1 +3.7
00 23.06 СВ 2 50 км {туман} 8/8 600 м
[Cu Sc]
+14.1 +5.8 57 +14 +17 1009.5 1006.0
03 23.06 СЗ 5 50 км 9/9 600 м
[Cu Sc]
+13.1 +7.1 67 +11 +12 1008.5 1005.0
06 23.06 СЗ 6-10
{10}
50 км 10/8 600 м
[Sc Ac und]
+11.4 +7.0 74 +9 +9 1008.3 1004.7
09 23.06 С 3
{10}
50 км 9/8 600 м
[Sc Ac trans]
+10.9 +8.5 85 +9 +9 1008.5 1004.9 +14.3
12 23.06 С 1 20 км 10/10 600 м
[Sc]
+9.7 +8.8 94 +9 +9 1009.3 1005.6
15 23.06 С 1 20 км 10/10 600 м
[Sc]
+8.3 +7.9 97 +7 +7 1009.4 1005.8
18 23.06 штиль 0 500 м туман ?/? +8.2 +7.9 98 +7 +7 1009.3 1005.6

 

Местоположение метеостанции Большерецк (Камчатский край, Россия): широта 52.83 долгота 156.30 высота над уровнем моря 30 м.

В архиве по умолчанию представлена погода в Большерецке за последнюю неделю. Архивные данные за месяц целиком и за предыдущие месяцы, начиная с января 2011 года, Вы можете получить, выбрав интересующий диапазон дат из раскрывающегося списка и нажав кнопку "Ввод!".

Внимание! Время в таблицах - всемирное. Для получения местного времени необходимо прибавить поправку, которая в Большерецке равна 12 ч.

Смотрите также архив погоды в соседних городах и на ближайших метеорологических станциях:

Погода в Начиках (Камчатский край, Россия) (99 км)
Погода в Сосновке (Камчатский край, Россия) (137 км)
Погода в Петропавловск-Камч. 2 (Камчатский край, Россия) (150 км)
Погода в Озерной (Камчатский край, Россия) (150 км)
Погода в Петропавловск-Камчатском (Камчатский край, Россия) (155 км)
Погода в Водопадной (Камчатский край, Россия) (161 км)
Погода в Петропавловском Маяке (Камчатский край, Россия) (161 км)
Погода в Соболево (Камчатский край, Россия) (166 км)
Погода в Пущино (Камчатский край, Россия) (188 км)
Погода на Мысе Лопатка (Камчатский край, Россия) (219 км)

Пояснения к столбцам:

Ветер - указаны скорость ветра в м/с - средняя за 10 мин, порывы в срок и между сроками (в фигурных скобках) и направление, откуда дует ветер: С - северный, СВ - северо-восточный, В - восточный, ЮВ - юго-восточный, Ю - южный, ЮЗ - юго-западный, З - западный, СЗ - северо-западный.
Видимость - горизонтальная дальность видимости в метрах или километрах. При видимости от 1 до 10 км при отсутствии осадков обычно наблюдается дымка, при ухудшении видимости до 1 км и менее - туман. В сухую погоду видимость может ухудшаться дымом, пылью или мглою.
Явления - указаны атмосферные явления, наблюдавшиеся в срок или в последний час перед сроком; фигурными скобками обозначены явления, наблюдавшиеся между сроками (за 1-3 часа до срока); квадратными скобками обозначены град или гололедные отложения с указанием их диаметра в мм.
Облачность - указаны через наклонную черту общая и нижняя облачность в баллах и высота нижней границы облаков в метрах; квадратными скобками обозначены формы облаков: Ci - перистые, Cs - перисто-слоистые, Cc - перисто-кучевые, Ac - высококучевые, As - высокослоистые, Sc - слоисто-кучевые, Ns - слоисто-дождевые, Cu - кучевые, Cb - кучево-дождевые. Подробнее классификацию облаков см. в Атласе облаков (PDF).
T - Температура воздуха - температура, измеренная на высоте 2 м над землей.
Td - Температура точки росы - температура, при понижении до которой содержащийся в воздухе водяной пар достигнет насыщения.
f - Относительная влажность воздуха - влажноcть воздуха, измеренная на высоте 2 м над землей.
Te - Эффективная температура - температура, которую ощущает одетый по сезону человек в тени. Характеристика душности погоды. При расчете учитывается влияние влажности воздуха и скорости ветра на теплоощущения человека.
Tes - Эффективная температура на солнце - температура, которую ощущает человек, с поправкой на солнечный нагрев. Характеристика знойности погоды. Зависит от высоты солнца над горизонтом, облачности и скорости ветра. Ночью, в пасмурную погоду, а также при ветре 12 м/с и более поправка равна нулю.
P - Атмосферное давление - приведенное к уровню моря атмосферное давление.
Po - Атмосферное давление - измеренное на уровне метеостанции атмосферное давление.
Tmin - Минимальная температура - минимум температуры воздуха на высоте 2 м над землей.
Tmax - Максимальная температура - максимум температуры воздуха на высоте 2 м над землей.
R - Количество осадков - Количество выпавших осадков за период времени, мм. При наведении курсора мыши на число - период времени, за который выпало указанное количество осадков.
R24 - Количество осадков - Количество выпавших осадков за 24 часа, мм.
S - Снежный покров - Высота снежного покрова, см. При наведении курсора мыши на число - состояние снежного покрова и степень покрытия местности в баллах.